Location: Lido
(41.7329°N, 12.2875°E)
Time: 09:26:43
(UTC+02:00)

ISS - Visible Passes

Search period start: 17 June 2025 00:00
Search period end: 27 June 2025 00:00
Orbit: 415 x 417 km, 51.6° (Epoch: 16 June)

Date Brightness Start Highest point End Pass type
(mag) Time Alt. Az. Time Alt. Az. Time Alt. Az.
20 Jun -1.7 04:33:16 10° S 04:35:46 20° SE 04:38:16 10° E visible
21 Jun -1.2 03:46:14 10° SSE 03:47:18 11° SE 03:48:26 10° ESE visible
22 Jun -3.4 04:32:19 15° SW 04:34:53 54° SE 04:38:11 10° ENE visible
23 Jun -2.6 03:45:26 27° SSE 03:46:16 30° SE 03:49:16 10° ENE visible
24 Jun -1.5 02:58:29 17° ESE 02:58:29 17° ESE 03:00:03 10° E visible
24 Jun -3.3 04:31:21 14° WSW 04:34:09 56° NNW 04:37:27 10° NE visible
25 Jun -3.9 03:44:20 41° SW 03:45:22 87° SE 03:48:44 10° NE visible
26 Jun -3.0 02:57:14 42° ESE 02:57:14 42° ESE 02:59:54 10° ENE visible
26 Jun -2.0 04:30:34 10° W 04:33:30 28° NNW 04:36:27 10° NE visible
